| time (UTC) | temp F | wind direction | speed MPH | gust MPH | rain 1hr in | rain 24hr in | rain mn in | humidity % | barometer mb |
| 20260507051332 | 60 | 303 | 2.0 | 2.0 | 0.00 | 0.00 | 0.00 | 85 | 1016.0 |
| 20260507050331 | 54 | 303 | 2.0 | 2.0 | 0.00 | 0.00 | 0.00 | 88 | 1016.0 |
| 20260507045330 | 54 | 303 | 2.0 | 2.0 | 0.00 | 0.00 | 0.00 | 88 | 1016.0 |
| 20260507044329 | 56 | 303 | 1.0 | 1.0 | 0.00 | 0.00 | 0.00 | 88 | 1016.0 |
| 20260507043328 | 59 | 303 | 2.0 | 2.0 | 0.00 | 0.00 | 0.00 | 88 | 1016.0 |
| 20260507042327 | 57 | 298 | 3.0 | 3.0 | 0.00 | 0.00 | 0.00 | 82 | 1016.0 |
| 20260507041326 | 60 | 298 | 3.0 | 3.0 | 0.00 | 0.00 | 0.00 | 82 | 1016.0 |
| 20260507040325 | 54 | 298 | 3.0 | 3.0 | 0.00 | 0.00 | 0.00 | 83 | 1016.0 |
| 20260507035324 | 54 | 298 | 3.0 | 3.0 | 0.00 | 0.00 | 0.00 | 83 | 1016.0 |
| 20260507034323 | 54 | 298 | 3.0 | 3.0 | 0.00 | 0.00 | 0.00 | 83 | 1016.0 |
| 20260507033322 | 56 | 298 | 3.0 | 3.0 | 0.00 | 0.00 | 0.00 | 83 | 1016.0 |
| 20260507032320 | 56 | 294 | 3.0 | 3.0 | 0.00 | 0.00 | 0.00 | 83 | 1016.0 |
| 20260507031319 | 56 | 294 | 3.0 | 3.0 | 0.00 | 0.00 | 0.00 | 83 | 1016.0 |
| 20260507030318 | 55 | 294 | 3.0 | 3.0 | 0.00 | 0.00 | 0.00 | 88 | 1016.0 |
| 20260507025317 | 58 | 294 | 3.0 | 3.0 | 0.00 | 0.00 | 0.00 | 88 | 1016.0 |
| 20260507024316 | 61 | 294 | 3.0 | 3.0 | 0.00 | 0.00 | 0.00 | 88 | 1016.0 |
| 20260507023315 | 55 | 294 | 3.0 | 3.0 | 0.00 | 0.00 | 0.00 | 82 | 1016.0 |
| 20260507022314 | 55 | 301 | 3.0 | 3.0 | 0.00 | 0.00 | 0.00 | 82 | 1015.0 |
| 20260507021313 | 55 | 301 | 3.0 | 3.0 | 0.00 | 0.00 | 0.00 | 82 | 1015.0 |
| 20260507020312 | 57 | 301 | 3.0 | 3.0 | 0.00 | 0.00 | 0.00 | 88 | 1015.0 |
| 20260507015311 | 60 | 301 | 3.0 | 3.0 | 0.00 | 0.00 | 0.00 | 88 | 1015.0 |
| 20260507014310 | 56 | 298 | 4.0 | 4.0 | 0.00 | 0.00 | 0.00 | 83 | 1015.0 |
| 20260507013309 | 59 | 298 | 4.0 | 4.0 | 0.00 | 0.00 | 0.00 | 83 | 1015.0 |
| 20260507012308 | 62 | 298 | 4.0 | 4.0 | 0.00 | 0.00 | 0.00 | 83 | 1014.0 |
| 20260507011307 | 56 | 298 | 4.0 | 4.0 | 0.00 | 0.00 | 0.00 | 85 | 1014.0 |
| 20260507010306 | 59 | 298 | 4.0 | 4.0 | 0.00 | 0.00 | 0.00 | 85 | 1014.0 |
| 20260507005306 | 62 | 298 | 4.0 | 4.0 | 0.00 | 0.00 | 0.00 | 85 | 1014.0 |
| 20260507004304 | 56 | 273 | 4.0 | 7.0 | 0.00 | 0.00 | 0.00 | 76 | 1014.0 |
| 20260507003303 | 59 | 273 | 4.0 | 7.0 | 0.00 | 0.00 | 0.00 | 76 | 1014.0 |
| 20260507002305 | 62 | 273 | 4.0 | 7.0 | 0.00 | 0.00 | 0.00 | 76 | 1013.0 |
| 20260507001301 | 65 | 273 | 4.0 | 7.0 | 0.00 | 0.00 | 0.00 | 76 | 1013.0 |
| 20260507000300 | 57 | 273 | 4.0 | 7.0 | 0.00 | 0.00 | 0.00 | 75 | 1013.0 |
| 20260506235259 | 57 | 273 | 4.0 | 7.0 | 0.00 | 0.00 | 0.00 | 75 | 1013.0 |
| 20260506234258 | 59 | 286 | 3.0 | 4.0 | 0.00 | 0.00 | 0.00 | 75 | 1013.0 |
| 20260506233257 | 62 | 286 | 3.0 | 4.0 | 0.00 | 0.00 | 0.00 | 75 | 1013.0 |
| 20260506232257 | 65 | 286 | 3.0 | 4.0 | 0.00 | 0.00 | 0.00 | 75 | 1012.0 |
| 20260506231256 | 68 | 286 | 3.0 | 4.0 | 0.00 | 0.00 | 0.00 | 75 | 1012.0 |
| 20260506230255 | 59 | 286 | 3.0 | 4.0 | 0.00 | 0.00 | 0.00 | 74 | 1012.0 |
| 20260506225254 | 59 | 286 | 3.0 | 4.0 | 0.00 | 0.00 | 0.00 | 74 | 1012.0 |
| 20260506224253 | 58 | 286 | 3.0 | 4.0 | 0.00 | 0.00 | 0.00 | 74 | 1011.0 |
| 20260506223251 | 61 | 286 | 3.0 | 4.0 | 0.00 | 0.00 | 0.00 | 74 | 1011.0 |
| 20260506222250 | 61 | 280 | 2.0 | 4.0 | 0.00 | 0.00 | 0.00 | 74 | 1010.0 |
| 20260506221250 | 61 | 280 | 2.0 | 4.0 | 0.00 | 0.00 | 0.00 | 74 | 1010.0 |
| 20260506220249 | 63 | 280 | 2.0 | 4.0 | 0.00 | 0.00 | 0.00 | 74 | 1010.0 |
| 20260506215247 | 63 | 280 | 2.0 | 4.0 | 0.00 | 0.00 | 0.00 | 74 | 1010.0 |
| 20260506214247 | 62 | 280 | 1.0 | 4.0 | 0.00 | 0.00 | 0.00 | 74 | 1010.0 |
| 20260506213246 | 65 | 280 | 2.0 | 4.0 | 0.00 | 0.00 | 0.00 | 74 | 1010.0 |
| 20260506212245 | 65 | 266 | 1.0 | 5.0 | 0.00 | 0.00 | 0.00 | 74 | 1009.0 |
| 20260506211244 | 65 | 266 | 1.0 | 5.0 | 0.00 | 0.00 | 0.00 | 74 | 1009.0 |
| 20260506210243 | 67 | 266 | 1.0 | 5.0 | 0.00 | 0.00 | 0.00 | 74 | 1009.0 |
| 20260506205242 | 66 | 266 | 1.0 | 5.0 | 0.00 | 0.00 | 0.00 | 74 | 1009.0 |
| 20260506204241 | 69 | 266 | 1.0 | 5.0 | 0.00 | 0.00 | 0.00 | 74 | 1009.0 |
| 20260506203240 | 72 | 266 | 1.0 | 5.0 | 0.00 | 0.00 | 0.00 | 74 | 1009.0 |
| 20260506202239 | 70 | 259 | 1.0 | 3.0 | 0.00 | 0.00 | 0.00 | 69 | 1009.0 |
| 20260506201238 | 73 | 259 | 1.0 | 3.0 | 0.00 | 0.00 | 0.00 | 69 | 1009.0 |
| 20260506200237 | 68 | 259 | 1.0 | 3.0 | 0.00 | 0.00 | 0.00 | 69 | 1009.0 |
| 20260506195236 | 68 | 259 | 1.0 | 3.0 | 0.00 | 0.00 | 0.00 | 69 | 1009.0 |
| 20260506194235 | 70 | 259 | 1.0 | 3.0 | 0.00 | 0.00 | 0.00 | 69 | 1010.0 |
| 20260506193234 | 73 | 259 | 1.0 | 3.0 | 0.00 | 0.00 | 0.00 | 69 | 1010.0 |
| 20260506192233 | 71 | 249 | 0.0 | 3.0 | 0.00 | 0.00 | 0.00 | 69 | 1010.0 |
| 20260506191232 | 74 | 249 | 0.0 | 3.0 | 0.00 | 0.00 | 0.00 | 69 | 1010.0 |
| 20260506190231 | 71 | 249 | 0.0 | 3.0 | 0.00 | 0.00 | 0.00 | 72 | 1010.0 |
| 20260506185231 | 71 | 249 | 0.0 | 3.0 | 0.00 | 0.00 | 0.00 | 72 | 1010.0 |
| 20260506184229 | 70 | 249 | 0.0 | 3.0 | 0.00 | 0.00 | 0.00 | 72 | 1010.0 |
| 20260506183228 | 73 | 249 | 0.0 | 3.0 | 0.00 | 0.00 | 0.00 | 72 | 1010.0 |
| 20260506182227 | 73 | 178 | 0.0 | 3.0 | 0.00 | 0.00 | 0.00 | 72 | 1011.0 |
| 20260506181226 | 72 | 178 | 0.0 | 3.0 | 0.00 | 0.00 | 0.00 | 72 | 1011.0 |
| 20260506180225 | 75 | 178 | 0.0 | 3.0 | 0.00 | 0.00 | 0.00 | 72 | 1011.0 |
| 20260506175224 | 72 | 178 | 0.0 | 3.0 | 0.00 | 0.00 | 0.00 | 72 | 1011.0 |
| 20260506174223 | 75 | 171 | 0.0 | 3.0 | 0.00 | 0.00 | 0.00 | 72 | 1011.0 |
| 20260506173222 | 71 | 152 | 1.0 | 3.0 | 0.00 | 0.00 | 0.00 | 72 | 1011.0 |
| 20260506172221 | 74 | 152 | 1.0 | 3.0 | 0.00 | 0.00 | 0.00 | 72 | 1012.0 |
| 20260506171220 | 77 | 152 | 1.0 | 3.0 | 0.00 | 0.00 | 0.00 | 72 | 1012.0 |
| 20260506170219 | 73 | 152 | 1.0 | 3.0 | 0.00 | 0.00 | 0.00 | 72 | 1012.0 |
| 20260506165218 | 71 | 152 | 1.0 | 3.0 | 0.00 | 0.00 | 0.00 | 64 | 1012.0 |
| 20260506164218 | 74 | 152 | 1.0 | 3.0 | 0.00 | 0.00 | 0.00 | 64 | 1012.0 |
| 20260506163217 | 71 | 152 | 1.0 | 3.0 | 0.00 | 0.00 | 0.00 | 69 | 1012.0 |
| 20260506162216 | 71 | 140 | 2.0 | 3.0 | 0.00 | 0.00 | 0.00 | 69 | 1014.0 |
| 20260506161215 | 70 | 140 | 1.0 | 3.0 | 0.00 | 0.00 | 0.00 | 69 | 1014.0 |
| 20260506160214 | 73 | 140 | 2.0 | 3.0 | 0.00 | 0.00 | 0.00 | 69 | 1014.0 |
| 20260506155213 | 70 | 140 | 1.0 | 3.0 | 0.00 | 0.00 | 0.00 | 69 | 1013.0 |
| 20260506154212 | 73 | 140 | 2.0 | 3.0 | 0.00 | 0.00 | 0.00 | 69 | 1014.0 |
| 20260506153211 | 67 | 126 | 1.0 | 1.0 | 0.00 | 0.00 | 0.00 | 80 | 1014.0 |
| 20260506152210 | 70 | 126 | 2.0 | 2.0 | 0.00 | 0.00 | 0.00 | 80 | 1015.0 |
| 20260506151209 | 67 | 126 | 1.0 | 1.0 | 0.00 | 0.00 | 0.00 | 80 | 1015.0 |
| 20260506150208 | 70 | 126 | 2.0 | 2.0 | 0.00 | 0.00 | 0.00 | 80 | 1015.0 |
| 20260506145207 | 66 | 126 | 1.0 | 1.0 | 0.00 | 0.00 | 0.00 | 78 | 1015.0 |
| 20260506144206 | 69 | 126 | 2.0 | 2.0 | 0.00 | 0.00 | 0.00 | 78 | 1015.0 |
| 20260506143205 | 60 | 126 | 2.0 | 2.0 | 0.00 | 0.00 | 0.00 | 85 | 1015.0 |
| 20260506142204 | 60 | 117 | 2.0 | 1.0 | 0.00 | 0.00 | 0.00 | 85 | 1016.0 |
| 20260506141203 | 62 | 117 | 1.0 | 1.0 | 0.00 | 0.00 | 0.00 | 85 | 1016.0 |
| 20260506140202 | 65 | 117 | 2.0 | 1.0 | 0.00 | 0.00 | 0.00 | 85 | 1016.0 |
| 20260506135201 | 62 | 117 | 1.0 | 1.0 | 0.00 | 0.00 | 0.00 | 86 | 1016.0 |
| 20260506134200 | 65 | 117 | 2.0 | 1.0 | 0.00 | 0.00 | 0.00 | 86 | 1016.0 |
| 20260506133159 | 58 | 117 | 2.0 | 1.0 | 0.00 | 0.00 | 0.00 | 90 | 1016.0 |
| 20260506132158 | 58 | 125 | 1.0 | 1.0 | 0.00 | 0.00 | 0.00 | 90 | 1016.0 |
| 20260506131157 | 60 | 125 | 1.0 | 1.0 | 0.00 | 0.00 | 0.00 | 90 | 1016.0 |
| 20260506130156 | 63 | 125 | 1.0 | 1.0 | 0.00 | 0.00 | 0.00 | 90 | 1016.0 |
| 20260506125155 | 59 | 125 | 1.0 | 1.0 | 0.00 | 0.00 | 0.00 | 93 | 1016.0 |
| 20260506124154 | 62 | 125 | 1.0 | 1.0 | 0.00 | 0.00 | 0.00 | 93 | 1016.0 |
| 20260506123153 | 55 | 125 | 1.0 | 1.0 | 0.00 | 0.00 | 0.00 | 95 | 1016.0 |
| 20260506122152 | 55 | 194 | 0.0 | 0.0 | 0.00 | 0.00 | 0.00 | 95 | 1016.0 |
| 20260506121151 | 57 | 194 | 0.0 | 0.0 | 0.00 | 0.00 | 0.00 | 95 | 1016.0 |
| 20260506120150 | 60 | 194 | 0.0 | 0.0 | 0.00 | 0.00 | 0.00 | 95 | 1016.0 |
| 20260506115149 | 57 | 204 | 0.0 | 0.0 | 0.00 | 0.00 | 0.00 | 95 | 1016.0 |
| 20260506114148 | 60 | 204 | 0.0 | 0.0 | 0.00 | 0.00 | 0.00 | 95 | 1016.0 |
| 20260506113147 | 53 | 204 | 0.0 | 0.0 | 0.00 | 0.00 | 0.00 | 94 | 1016.0 |
| 20260506112146 | 53 | 264 | 1.0 | 0.0 | 0.00 | 0.00 | 0.00 | 94 | 1015.0 |
| 20260506111145 | 55 | 264 | 1.0 | 0.0 | 0.00 | 0.00 | 0.00 | 94 | 1015.0 |
| 20260506110144 | 58 | 264 | 1.0 | 0.0 | 0.00 | 0.00 | 0.00 | 94 | 1015.0 |
| 20260506105143 | 55 | 264 | 1.0 | 0.0 | 0.00 | 0.00 | 0.00 | 96 | 1015.0 |
| 20260506104142 | 58 | 264 | 1.0 | 0.0 | 0.00 | 0.00 | 0.00 | 96 | 1015.0 |
| 20260506103141 | 52 | 264 | 1.0 | 0.0 | 0.00 | 0.00 | 0.00 | 95 | 1015.0 |
| 20260506102140 | 52 | 259 | 0.0 | 0.0 | 0.00 | 0.00 | 0.00 | 95 | 1015.0 |
| 20260506101139 | 52 | 259 | 0.0 | 0.0 | 0.00 | 0.00 | 0.00 | 95 | 1015.0 |
| 20260506100138 | 52 | 259 | 0.0 | 0.0 | 0.00 | 0.00 | 0.00 | 95 | 1015.0 |
| 20260506095137 | 52 | 259 | 0.0 | 0.0 | 0.00 | 0.00 | 0.00 | 95 | 1015.0 |
| 20260506094136 | 52 | 259 | 0.0 | 0.0 | 0.00 | 0.00 | 0.00 | 95 | 1015.0 |
| 20260506093135 | 54 | 259 | 0.0 | 0.0 | 0.00 | 0.00 | 0.00 | 95 | 1015.0 |
| 20260506092134 | 54 | 305 | 1.0 | 1.0 | 0.00 | 0.00 | 0.00 | 95 | 1014.0 |
| 20260506091133 | 56 | 305 | 1.0 | 1.0 | 0.00 | 0.00 | 0.00 | 95 | 1014.0 |
| 20260506090132 | 59 | 305 | 1.0 | 1.0 | 0.00 | 0.00 | 0.00 | 95 | 1014.0 |
| 20260506085131 | 59 | 305 | 1.0 | 1.0 | 0.00 | 0.00 | 0.00 | 95 | 1014.0 |
| 20260506084130 | 54 | 305 | 1.0 | 1.0 | 0.00 | 0.00 | 0.00 | 93 | 1014.0 |
| 20260506083129 | 57 | 305 | 1.0 | 1.0 | 0.00 | 0.00 | 0.00 | 93 | 1014.0 |
| 20260506082128 | 60 | 305 | 1.0 | 1.0 | 0.00 | 0.00 | 0.00 | 93 | 1014.0 |
| 20260506081127 | 54 | 305 | 1.0 | 1.0 | 0.00 | 0.00 | 0.00 | 94 | 1014.0 |
| 20260506080126 | 54 | 305 | 1.0 | 1.0 | 0.00 | 0.00 | 0.00 | 94 | 1014.0 |
| 20260506073123 | 56 | 305 | 1.0 | 1.0 | 0.00 | 0.00 | 0.00 | 94 | 1015.0 |
| 20260506072122 | 56 | 301 | 2.0 | 1.0 | 0.00 | 0.00 | 0.00 | 94 | 1015.0 |
| 20260506071121 | 56 | 301 | 2.0 | 1.0 | 0.00 | 0.00 | 0.00 | 94 | 1015.0 |
| 20260506070120 | 54 | 301 | 1.0 | 1.0 | 0.00 | 0.00 | 0.00 | 95 | 1015.0 |
| 20260506062116 | 54 | 306 | 2.0 | 2.0 | 0.00 | 0.00 | 0.00 | 94 | 1015.0 |
| 20260506061115 | 54 | 306 | 2.0 | 2.0 | 0.00 | 0.00 | 0.00 | 94 | 1015.0 |
| 20260506060114 | 56 | 306 | 2.0 | 2.0 | 0.00 | 0.00 | 0.00 | 94 | 1015.0 |